GW0865 Weather Reports


Display with metric or nautical units.
time (UTC)temp
F
wind
direction
speed
MPH
gust
MPH
rain 1hr
in
rain 24hr
in
rain mn
in
humidity
%
barometer
mb
20260902000049 56 0 0.0 0.0 0.00 0.00 0.00 90 1018.5
20260901234547 56 0 0.0 0.0 0.00 0.00 0.00 90 1018.4
20260901233052 56 0 0.0 0.0 0.00 0.00 0.00 90 1018.3
20260901231557 56 0 0.0 0.0 0.00 0.00 0.00 89 1018.5
20260901224551 56 0 0.0 0.0 0.00 0.00 0.00 88 1018.5
20260901223052 57 173 0.0 0.0 0.00 0.00 0.00 87 1018.5
20260901221605 57 0 0.0 0.0 0.00 0.00 0.00 85 1018.5
20260901220046 58 0 0.0 0.0 0.00 0.00 0.00 83 1018.4
20260901214555 59 0 0.0 0.0 0.00 0.00 0.00 81 1018.6
20260901213054 60 173 0.0 1.0 0.00 0.00 0.00 80 1018.5
20260901211551 61 0 0.0 3.0 0.00 0.00 0.00 78 1018.7
20260901210046 61 248 1.0 5.0 0.00 0.00 0.00 78 1018.6
20260901204553 61 236 1.0 4.0 0.00 0.00 0.00 78 1018.6
20260901203054 61 265 2.0 5.0 0.00 0.00 0.00 78 1018.6
20260901201550 61 244 3.0 6.0 0.00 0.00 0.00 79 1018.4
20260901200052 62 231 1.0 5.0 0.00 0.00 0.00 79 1018.5
20260901194600 62 222 1.0 4.0 0.00 0.00 0.00 79 1018.4
20260901193048 62 264 1.0 4.0 0.00 0.00 0.00 79 1018.5
20260901191554 62 236 1.0 5.0 0.00 0.00 0.00 79 1018.5
20260901190050 63 264 2.0 4.0 0.00 0.00 0.00 78 1018.4
20260901184546 63 235 2.0 4.0 0.00 0.00 0.00 78 1018.4
20260901183117 63 216 1.0 5.0 0.00 0.00 0.00 79 1018.4
20260901181552 63 246 2.0 6.0 0.00 0.00 0.00 79 1018.4
20260901180051 63 205 2.0 8.0 0.00 0.00 0.00 78 1018.5
20260901174548 63 222 3.0 9.0 0.00 0.00 0.00 77 1018.5
20260901173129 64 195 4.0 13.0 0.00 0.00 0.00 76 1018.5
20260901171557 65 186 8.0 15.0 0.00 0.00 0.00 73 1018.5
20260901170058 66 215 5.0 11.0 0.00 0.00 0.00 70 1018.2
20260901164550 67 237 5.0 10.0 0.00 0.00 0.00 69 1018.0
20260901163113 67 225 5.0 12.0 0.00 0.00 0.00 68 1018.2
20260901161603 67 242 5.0 14.0 0.00 0.00 0.00 67 1018.2
20260901160054 67 151 5.0 12.0 0.00 0.00 0.00 69 1017.9
20260901154605 68 226 7.0 14.0 0.00 0.00 0.00 67 1018.0
20260901153048 69 175 4.0 11.0 0.00 0.00 0.00 60 1017.9
20260901151553 69 263 6.0 12.0 0.00 0.00 0.00 60 1018.0
20260901150057 69 280 4.0 11.0 0.00 0.00 0.00 59 1017.9
20260901144548 69 194 4.0 9.0 0.00 0.00 0.00 59 1018.0
20260901143054 69 261 4.0 13.0 0.00 0.00 0.00 60 1018.0
20260901141607 69 267 7.0 11.0 0.00 0.00 0.00 58 1018.3
20260901140052 69 293 1.0 9.0 0.00 0.00 0.00 61 1018.1
20260901134551 69 250 4.0 9.0 0.00 0.00 0.00 60 1018.3
20260901133049 68 269 3.0 10.0 0.00 0.00 0.00 60 1018.3
20260901131551 69 229 6.0 11.0 0.00 0.00 0.00 57 1018.4
20260901130054 68 260 5.0 10.0 0.00 0.00 0.00 58 1018.5
20260901124552 68 255 3.0 7.0 0.00 0.03 0.00 58 1018.4
20260901123051 68 0 1.0 9.0 0.00 0.03 0.00 56 1018.5
20260901121548 68 302 7.0 12.0 0.00 0.03 0.00 56 1018.8
20260901120105 67 230 4.0 10.0 0.00 0.03 0.00 60 1018.9
20260901114551 67 242 5.0 13.0 0.00 0.03 0.00 59 1018.6
20260901113049 66 200 6.0 12.0 0.00 0.03 0.00 57 1018.6
20260901111603 66 246 5.0 12.0 0.00 0.03 0.00 60 1018.7
20260901110054 65 266 5.0 13.0 0.00 0.03 0.00 60 1018.8
20260901104550 65 323 3.0 13.0 0.00 0.03 0.00 65 1018.9
20260901103100 64 240 4.0 12.0 0.00 0.03 0.00 69 1019.1
20260901101606 65 165 4.0 10.0 0.00 0.03 0.00 69 1019.1
20260901100100 64 265 3.0 8.0 0.00 0.03 0.00 71 1019.3
20260901094546 63 224 6.0 12.0 0.00 0.03 0.00 69 1019.5
20260901093053 62 264 3.0 9.0 0.00 0.03 0.00 73 1019.6
20260901091551 62 0 3.0 9.0 0.00 0.03 0.00 76 1019.5
20260901084621 59 226 4.0 9.0 0.00 0.03 0.00 80 1019.6
20260901083053 59 230 4.0 8.0 0.00 0.03 0.00 79 1019.5
20260901081551 58 200 2.0 8.0 0.00 0.03 0.00 83 1019.5
20260901080108 57 222 3.0 7.0 0.00 0.03 0.00 85 1019.5
20260901074603 57 239 1.0 5.0 0.00 0.03 0.00 89 1019.3
20260901073051 55 0 0.0 4.0 0.00 0.03 0.00 92 1019.2
20260901071556 55 0 0.0 0.0 0.00 0.03 0.00 96 1019.2
20260901070049 53 0 0.0 1.0 0.00 0.03 0.00 97 1019.1
20260901064548 52 0 0.0 0.0 0.00 0.03 0.00 98 1018.9
20260901063102 49 0 0.0 0.0 0.00 0.03 0.00 98 1019.1
20260901061554 48 0 0.0 0.0 0.00 0.03 0.00 97 1019.1
20260901060058 48 0 0.0 0.0 0.00 0.03 0.00 97 1018.8
20260901054554 48 0 0.0 0.0 0.00 0.04 0.00 97 1018.8
20260901053102 47 0 0.0 0.0 0.00 0.04 0.00 97 1018.6
20260901051548 47 0 0.0 0.0 0.00 0.04 0.00 97 1018.6
20260901050055 48 0 0.0 0.0 0.00 0.04 0.00 97 1018.5
20260901044555 48 0 0.0 0.0 0.00 0.04 0.00 96 1018.4
20260901043052 48 0 0.0 0.0 0.00 0.04 0.00 96 1018.5
20260901041613 48 0 0.0 0.0 0.00 0.04 0.00 96 1018.5
20260901040133 48 0 0.0 0.0 0.00 0.04 0.00 96 1018.3
20260901034553 49 0 0.0 0.0 0.00 0.04 0.00 96 1018.3
20260901033051 49 0 0.0 0.0 0.00 0.04 0.00 96 1018.3
20260901031551 49 0 0.0 0.0 0.00 0.04 0.00 96 1018.2
20260901030103 49 0 0.0 1.0 0.00 0.04 0.00 96 1018.1
20260901024555 49 0 0.0 1.0 0.00 0.04 0.00 95 1018.2
20260901023057 50 0 0.0 0.0 0.00 0.04 0.00 96 1018.3
20260901021547 50 0 0.0 1.0 0.00 0.04 0.00 95 1018.3
20260901020054 50 0 0.0 0.0 0.00 0.04 0.00 95 1018.3
20260901014549 50 0 0.0 0.0 0.00 0.04 0.00 95 1018.3
20260901013058 51 0 0.0 1.0 0.00 0.04 0.00 95 1018.3
20260901011551 51 260 0.0 1.0 0.00 0.04 0.00 94 1018.4
20260901010105 51 0 0.0 1.0 0.00 0.04 0.00 94 1018.3
20260901004550 51 260 0.0 1.0 0.00 0.11 0.00 94 1018.3
20260901003054 52 0 0.0 1.0 0.00 0.11 0.00 94 1018.4
20260901001550 52 0 0.0 1.0 0.00 0.11 0.00 93 1018.3